Regional Weather Roundup
Issued by NWS

Home | Current Version | Previous Version | Text Only | Print | Product List | Glossary On
Versions: 1 2 3 4 5 6 7 8 9 10 11 12 13 14 15 16 17 18 19 20 21 22 23 24 25 26 27 28 29 30 31 32 33 34 35 36 37 38 39 40 41 42 43 44 45 46 47 48 49 50
000
ASUS43 KMPX 311901
RWRMN
WEATHER ROUNDUP FOR MINNESOTA
NATIONAL WEATHER SERVICE TWIN CITIES/CHANHASSEN MN
200 PM CDT FRI JUL 31 2015


NOTE: "FAIR" INDICATES FEW OR NO CLOUDS BELOW 12,000 FEET WITH NO
SIGNIFICANT WEATHER AND/OR OBSTRUCTIONS TO VISIBILITY. N/A MEANS
CURRENT SKY AND/OR WEATHER CONDITIONS ARE NOT AVAILABLE.

MNZ060>063-068>070-312000-
   Twin Cities Metro

CITY           SKY/WX    TMP DP  RH WIND       PRES   REMARKS
TWIN CITIES    MOSUNNY   81  50  33 NW17G33   30.04F
ST PAUL        MOSUNNY   81  49  32 W22G29    30.04F
CRYSTAL        SUNNY     82  50  32 NW18G25   30.03F
BLAINE         MOSUNNY   81  50  34 NW17G23   30.05S
LAKEVILLE      SUNNY     79  54  41 W17G23    30.06S
EDEN PRAIRIE   SUNNY     82  52  35 NW14G25   30.05F
SOUTH ST PAUL  SUNNY     81  48  31 NW13G21   30.04F
LAKE ELMO      FAIR      79  50  36 NW15G22   30.05F
$$
MNZ001>005-007-008-013>017-022>024-027-028-312000-
   Northwest Minnesota

CITY           SKY/WX    TMP DP  RH WIND       PRES   REMARKS
BEMIDJI        PTSUNNY   76  50  40 NW20G37   30.02F
HALLOCK        SUNNY     79  46  31 NW15G24   30.00F
ROSEAU         SUNNY     75  55  50 NW16G24   29.98S
WARROAD        SUNNY     75  54  46 W18G26    29.97S
THIEF RVR FALL MOSUNNY   77  48  36 W17G24    30.03S
CROOKSTON      SUNNY     79  50  36 NW20G26   30.03F
FOSSTON          N/A     75  50  41 W16G22    30.05F
DETROIT LAKES  SUNNY     77  48  36 NW18G25   30.08F
MOORHEAD       SUNNY     79  54  41 NW13G22   30.07F
PARK RAPIDS    MOSUNNY   79  49  34 W21       30.05S
MAHNOMEN       FAIR      76  51  40 NW14      30.05F
$$
MNZ006-009>011-018-025>026-312000-
   North Central Minnesota

CITY           SKY/WX    TMP DP  RH WIND       PRES   REMARKS
BAUDETTE       MOSUNNY   74  53  48 NW16      29.95F
FLAG ISLAND    MOSUNNY   72  54  53 NW16      29.92F
INTL FALLS     PTSUNNY   74  54  49 W15G30    29.93S
WASKISH        MOSUNNY   75  57  53 W13G23    29.98F
BIG FORK       MOSUNNY   75  52  43 W10G20    29.97F
LONGVILLE      SUNNY     75  50  41 W9G28     30.02F
GRAND RAPIDS   MOSUNNY   75  48  38 W18G31    30.00S
CRANE LAKE     MOSUNNY   68  57  68 W8G17     29.92F
ORR            MOSUNNY   75  46  35 W20G28    29.91F
COOK           MOSUNNY   73  52  46 W13G26    29.94S
WALKER         FAIR      75  49  40 NW18G31   30.03S
$$
MNZ012-019>021-037-312000-
   Northeast Minnesota

CITY           SKY/WX    TMP DP  RH WIND       PRES   REMARKS
DULUTH         MOSUNNY   76  52  43 NW18G28   29.95F
ELY            PTSUNNY   63  57  82 CALM      29.94R
HIBBING        MOSUNNY   74  50  42 NW18G30   29.95F
EVELETH        MOSUNNY   73  52  46 W15G23    29.95F
DULUTH HARBOR  MOSUNNY   79  55  44 W17G23    29.94F
TWO HARBORS    MOSUNNY   79  61  53 W13G21    29.91F
SILVER BAY     PTSUNNY   75  52  43 W6        29.89F
GRAND MARAIS     N/A     64  52  64 VRB3      29.86S
G MARAIS ARPRT MOSUNNY   66  50  55 W12G20    29.91S
$$
MNZ029>031-032-039>041-046>048-054>057-064-312000-
   West Central Minnesota

CITY           SKY/WX    TMP DP  RH WIND       PRES   REMARKS
FERGUS FALLS   SUNNY     79  54  41 N13G18    30.07F
WHEATON        SUNNY     79  54  41 W7        30.11S
MORRIS         SUNNY     81  54  39 NW12      30.09F
ALEXANDRIA     SUNNY     78  52  40 NW13G23   30.10F
ELBOW LAKE     FAIR      77  53  43 NW12      30.08F
WADENA         SUNNY     79  48  34 NW14G22   30.06F
GLENWOOD       SUNNY     79  54  41 NW13G21   30.10F
APPLETON       SUNNY     82  48  30 NW9       30.10S
BENSON         SUNNY     81  48  32 N12       30.10S
ORTONVILLE     SUNNY     81  50  34 N6        30.11S
MADISON        SUNNY     81  50  34 W8        30.11F
WILLMAR        FAIR      81  54  39 NW13      30.11F
$$
MNZ033>034-036-042>043-049>051-058-059-312000-
   Central Minnesota

CITY           SKY/WX    TMP DP  RH WIND       PRES   REMARKS
ST CLOUD       SUNNY     80  49  33 NW22G30   30.05F
SAUK CENTRE    FAIR      78  53  41 NW16G24   30.08F
PAYNESVILLE    SUNNY     76  49  37 W14G22    30.09F
AITKIN         MOSUNNY   79  52  38 NW9       30.01F
PINE RIVER     SUNNY     77  52  41 NW13G21   30.06F
BRAINERD       SUNNY     79  47  32 NW18G24   30.04F
STAPLES        SUNNY     77  45  31 NW16      30.06F
LONG PRAIRIE   FAIR      79  52  38 W16G23    30.08S
LITTLE FALLS   SUNNY     79  45  29 W12G20    30.06S
LITCHFIELD     SUNNY     81  54  39 NW12G21   30.09F
BUFFALO        SUNNY     80  49  34 W18G25    30.07F
MAPLE LAKE     SUNNY     79  55  44 NW15      30.07F
$$
MNZ037-044-045-052-053-312000-
   East Central Minnesota

CITY           SKY/WX    TMP DP  RH WIND       PRES   REMARKS
PRINCETON      SUNNY     81  52  36 W12G23    30.05S
MORA           MOSUNNY   75  48  38 NW15G25   30.04F
CAMBRIDGE      MOSUNNY   81  57  44 NW15      30.02F
RUSH CITY      PTSUNNY   78  52  40 NW8G20    30.03S
MOOSE LAKE     MOSUNNY   75  50  41 NW10G22   29.98F
HINCKLEY       FAIR      77  54  44 NW14G22   30.01F
CLOQUET        MOSUNNY   75  48  38 W16G23    29.98S
MCGREGOR       MOSUNNY   77  46  33 NW18G28   30.01F
$$
MNZ071>073-080-081-089-090-097-098-312000-
   Southwest Minnesota

CITY           SKY/WX    TMP DP  RH WIND       PRES   REMARKS
MONTEVIDEO     SUNNY     82  57  42 N7        30.12F
GRANITE FALLS  SUNNY     80  57  44 W10       30.13S
CANBY          SUNNY     80  52  37 N6        30.13F
MARSHALL       SUNNY     81  54  39 N8        30.14S
REDWOOD FALLS  SUNNY     82  52  35 N10G20    30.10F
OLIVIA         SUNNY     77  54  44 NW10      30.09F
PIPESTONE      SUNNY     81  48  32 CALM      30.15S
WINDOM         SUNNY     81  52  36 NW8       30.13F
WORTHINGTON    SUNNY     79  52  38 N3        30.15F
JACKSON        SUNNY     81  52  36 VRB6      30.14F
TRACY          SUNNY     81  55  41 NW9       30.13F
SLAYTON        SUNNY     82  49  31 CALM      30.16S
$$
MNZ065>067-074>077-082>085-091>093-312000-
   South Central Minnesota

CITY           SKY/WX    TMP DP  RH WIND       PRES   REMARKS
MANKATO        SUNNY     79  55  44 NW18      30.09F
NEW ULM        SUNNY     81  54  39 NW13G18   30.10S
ST JAMES       SUNNY     81  57  44 W12       30.12S
FAIRMONT       SUNNY     81  52  36 NW14      30.11F
GLENCOE        SUNNY     80  57  45 NW13G22   30.08F
FARIBAULT      SUNNY     79  59  50 W10G20    30.08F
OWATONNA       SUNNY     79  54  41 NW18      30.08F
WASECA         SUNNY     77  59  53 NW10G20   30.10F
ALBERT LEA     SUNNY     79  57  47 NW8G18    30.10F
$$
MNZ078>079-086>088-094>096-312000-
   Southeast Minnesota

CITY           SKY/WX    TMP DP  RH WIND       PRES   REMARKS
ROCHESTER      SUNNY     76  56  49 NW16      30.08F
RED WING       MOSUNNY   82  46  28 NW15G23   30.02F
STANTON        SUNNY     80  52  37 W16G23    30.05F
DODGE CENTER   SUNNY     75  54  46 NW14G24   30.09F
WINONA         MOSUNNY   79  48  34 NW17G23   30.03F
AUSTIN         SUNNY     81  54  39 NW16      30.09F
PRESTON        SUNNY     76  51  41 NW20G30   30.08F
$$
ABBREVIATIONS USED IN REMARKS
   TC - TEMPERATURES IN CELSIUS
  WCI - WIND CHILL INDEX
   HX - HEAT INDEX
  VSB - VISIBILITY
$$


USA.gov is the U.S. government's official web portal to all federal, state and local government web resources and services.